User: anonymous   Login
Location: Newark
(44.4156°N, 12.1972°E)
Time: 12:10:57
(UTC+00:00)
Language:

STARLINK-1080 - Orbit

View from above orbital plane
View from above orbital plane
View from above satellite
View from above satellite

Ground track
Ground track

The orbit data is extracted from the following two-line orbital elements,

1 44961C 20001AZ  20099.19950205  .00007639  00000-0  83224-4 0   997
2 44961  53.0011 300.5836 0001145  60.0872 312.0774 15.62754875    10
Epoch (UTC): 08 April 2020 04:47:16
Eccentricity: 0.0001145
inclination: 53.0011°
perigee height: 379 km
apogee height: 380 km
right ascension of ascending node: 300.5836°
argument of perigee: 60.0872°
revolutions per day: 15.62754875
mean anomaly at epoch: 312.0774°
orbit number at epoch: 1

The dashed part of the orbit path shows where the satellite is in the earth's shadow,  

DLR